Bluffton, MN

3:28 AM CDT on July 24, 2016 (GMT -0500)
Wadena Municipal

Weather History for KADC - November, 2011

Change the Weather History Date:

Friday, November 18, 2011

  Actual Average Record
Temperature  
Mean Temperature 22 °F -  
Max Temperature 26 °F 33 °F 68 °F (1953)
Min Temperature 19 °F 18 °F -7 °F (1989)
Degree Days  
Heating Degree Days 42    
Moisture  
Dew Point 16 °F    
Average Humidity 72    
Maximum Humidity 93    
Minimum Humidity 50    
Precipitation  
Precipitation 0.00 in - - ()
Sea Level Pressure  
Sea Level Pressure 29.63 in    
Wind  
Wind Speed 7 mph (ENE)    
Max Wind Speed 13 mph    
Max Gust Speed 18 mph    
Visibility 9 miles    
Events Snow    
Averages and records for this station are not official NWS values.
T = Trace of Precipitation, MM = Missing Value Source: NWS Daily Summary

Daily Weather History Graph

Daily Weather History Graph

Search for Another Location

Airport or City:

Trip Planner

Search our weather history database for the weather conditions in past years. The results will help you decide how hot, cold, wet, or windy it might be!

Date:

Astronomy

Nov. 18, 2011 Rise Set
Actual Time 7:26 AM CST 4:44 PM CST
Civil Twilight 6:53 AM CST 5:18 PM CST
Nautical Twilight 6:16 AM CST 5:54 PM CST
Astronomical Twilight 5:40 AM CST 6:30 PM CST
Moon No Moon Rise 12:55 PM CST (11/18)
Length of Visible Light 10h 24m
Length of Day
9h 18m
Waning Gibbous, 49% of the Moon is Illuminated
Nov 18
Waning Gibbous
Nov 25
New
Dec 2
First Quarter
Dec 10
Full
Dec 17
Last Quarter

Hourly Weather History & Observations

Time (CST) Temp. Windchill Dew Point Humidity Pressure Visibility Wind Dir Wind Speed Gust Speed Precip Events Conditions
12:15 AM 24.8 °F 14.0 °F 8.6 °F 50% 29.69 in 10.0 mi ESE 11.5 mph 18.4 mph N/A   Mostly Cloudy
12:35 AM 24.8 °F 13.4 °F 8.6 °F 50% 29.68 in 10.0 mi SE 12.7 mph - N/A   Scattered Clouds
12:53 AM 24.8 °F 14.0 °F 8.6 °F 50% 29.67 in 10.0 mi ESE 11.5 mph 18.4 mph N/A   Scattered Clouds
1:14 AM 24.8 °F 14.6 °F 10.4 °F 54% 29.66 in 10.0 mi East 10.4 mph - N/A   Scattered Clouds
1:35 AM 24.8 °F 15.3 °F 10.4 °F 54% 29.65 in 10.0 mi ESE 9.2 mph - N/A   Scattered Clouds
1:53 AM 24.8 °F 16.1 °F 10.4 °F 54% 29.64 in 10.0 mi East 8.1 mph - N/A   Scattered Clouds
2:35 AM 24.8 °F 14.6 °F 10.4 °F 54% 29.63 in 10.0 mi SE 10.4 mph - N/A   Mostly Cloudy
2:53 AM 24.8 °F 14.0 °F 10.4 °F 54% 29.61 in 10.0 mi ESE 11.5 mph - N/A   Overcast
3:15 AM 24.8 °F 16.1 °F 10.4 °F 54% 29.61 in 10.0 mi ESE 8.1 mph - N/A   Mostly Cloudy
3:24 AM 23.0 °F 13.9 °F 10.4 °F 59% 29.60 in 10.0 mi ESE 8.1 mph - N/A   Scattered Clouds
3:54 AM 21.2 °F 13.6 °F 10.4 °F 63% 29.60 in 10.0 mi East 5.8 mph - N/A   Clear
4:15 AM 21.2 °F 13.6 °F 10.4 °F 63% 29.59 in 10.0 mi East 5.8 mph - N/A   Clear
4:35 AM 21.2 °F 16.4 °F 10.4 °F 63% 29.61 in 10.0 mi ENE 3.5 mph - N/A   Clear
4:53 AM 19.4 °F 12.8 °F 10.4 °F 68% 29.61 in 10.0 mi NE 4.6 mph - N/A   Clear
5:14 AM 21.2 °F 13.6 °F 10.4 °F 63% 29.61 in 10.0 mi NE 5.8 mph - N/A   Clear
5:35 AM 19.4 °F 10.4 °F 10.4 °F 68% 29.62 in 10.0 mi NNE 6.9 mph - N/A   Clear
5:50 AM 19.4 °F 10.4 °F 10.4 °F 68% 29.61 in 10.0 mi ENE 6.9 mph - N/A   Scattered Clouds
6:14 AM 19.4 °F 9.5 °F 10.4 °F 68% 29.60 in 10.0 mi ENE 8.1 mph - N/A   Clear
6:35 AM 19.4 °F 10.4 °F 10.4 °F 68% 29.60 in 10.0 mi ENE 6.9 mph - N/A   Clear
6:53 AM 19.4 °F 11.5 °F 10.4 °F 68% 29.61 in 10.0 mi ENE 5.8 mph - N/A   Clear
7:14 AM 19.4 °F 10.4 °F 12.2 °F 74% 29.60 in 10.0 mi East 6.9 mph - N/A   Clear
7:35 AM 19.4 °F - 12.2 °F 74% 29.62 in 10.0 mi Calm Calm - N/A   Mostly Cloudy
7:53 AM 21.2 °F 14.9 °F 12.2 °F 68% 29.61 in 10.0 mi ENE 4.6 mph - N/A   Overcast
8:14 AM 21.2 °F 13.6 °F 12.2 °F 68% 29.61 in 10.0 mi ENE 5.8 mph - N/A   Overcast
8:35 AM 21.2 °F 12.6 °F 14.0 °F 74% 29.59 in 10.0 mi ENE 6.9 mph - N/A   Mostly Cloudy
8:53 AM 21.2 °F 12.6 °F 14.0 °F 74% 29.59 in 10.0 mi ENE 6.9 mph - N/A   Mostly Cloudy
9:14 AM 23.0 °F 14.7 °F 14.0 °F 68% 29.58 in 10.0 mi East 6.9 mph - N/A   Scattered Clouds
9:35 AM 23.0 °F 14.7 °F 15.8 °F 74% 29.59 in 10.0 mi East 6.9 mph - N/A   Scattered Clouds
9:53 AM 24.8 °F 19.1 °F 15.8 °F 69% 29.60 in 10.0 mi East 4.6 mph - N/A   Mostly Cloudy
10:15 AM 24.8 °F 16.9 °F 15.8 °F 69% 29.59 in 10.0 mi East 6.9 mph - N/A   Mostly Cloudy
10:35 AM 26.6 °F 21.2 °F 15.8 °F 64% 29.58 in 10.0 mi ENE 4.6 mph - N/A   Mostly Cloudy
10:53 AM 26.6 °F 22.6 °F 17.6 °F 69% 29.60 in 10.0 mi NE 3.5 mph - N/A   Overcast
11:14 AM 26.6 °F 21.2 °F 17.6 °F 69% 29.61 in 10.0 mi NNW 4.6 mph - N/A   Mostly Cloudy
11:35 AM 26.6 °F 17.5 °F 17.6 °F 69% 29.62 in 10.0 mi North 9.2 mph - N/A   Scattered Clouds
11:52 AM 26.6 °F 19.1 °F 15.8 °F 64% 29.61 in 10.0 mi North 6.9 mph - N/A   Clear
12:15 PM 26.6 °F 22.6 °F 15.8 °F 64% 29.61 in 10.0 mi NE 3.5 mph - N/A   Scattered Clouds
12:34 PM 26.6 °F 22.6 °F 17.6 °F 69% 29.61 in 10.0 mi ENE 3.5 mph - N/A   Scattered Clouds
12:53 PM 26.6 °F 22.6 °F 17.6 °F 69% 29.61 in 10.0 mi NE 3.5 mph - N/A   Mostly Cloudy
1:35 PM 26.6 °F - 19.4 °F 74% 29.62 in 1.2 mi Calm Calm - N/A Snow Light Snow
1:53 PM 26.6 °F 21.2 °F 21.2 °F 80% 29.61 in 1.2 mi East 4.6 mph - N/A Snow Light Snow
2:15 PM 26.6 °F 21.2 °F 21.2 °F 80% 29.61 in 1.5 mi East 4.6 mph - N/A Snow Light Snow
2:53 PM 26.6 °F 22.6 °F 23.0 °F 86% 29.61 in 1.8 mi ENE 3.5 mph - N/A Snow Light Snow
3:15 PM 26.6 °F - 23.0 °F 86% 29.62 in 4.0 mi Calm Calm - N/A Snow Light Snow
3:35 PM 26.6 °F - 23.0 °F 86% 29.63 in 10.0 mi Calm Calm - N/A   Overcast
3:53 PM 26.6 °F - 23.0 °F 86% 29.64 in 7.0 mi Calm Calm - N/A Snow Light Snow
4:15 PM 26.6 °F - 23.0 °F 86% 29.65 in 5.0 mi Calm Calm - N/A Snow Light Snow
4:34 PM 26.6 °F - 23.0 °F 86% 29.65 in 7.0 mi Calm Calm - N/A Snow Light Snow
4:53 PM 26.6 °F - 23.0 °F 86% 29.65 in 10.0 mi Calm Calm - N/A   Unknown
5:15 PM 26.6 °F - 23.0 °F 86% 29.67 in 10.0 mi Calm Calm - N/A   Overcast
5:35 PM 26.6 °F - 23.0 °F 86% 29.68 in 10.0 mi Calm Calm - N/A   Unknown
6:15 PM 26.6 °F - 23.0 °F 86% 29.68 in 10.0 mi Calm Calm - N/A   Overcast
6:35 PM 26.6 °F - 24.8 °F 93% 29.68 in 10.0 mi Calm Calm - N/A   Unknown
6:53 PM 26.6 °F - 23.0 °F 86% 29.68 in 10.0 mi Calm Calm - N/A   Unknown
7:15 PM 26.6 °F 21.2 °F 24.8 °F 93% 29.70 in 10.0 mi West 4.6 mph - N/A   Overcast
7:34 PM 26.6 °F 22.6 °F 24.8 °F 93% 29.70 in 10.0 mi West 3.5 mph - N/A   Overcast
7:53 PM 26.6 °F 20.0 °F 24.8 °F 93% 29.71 in 10.0 mi West 5.8 mph - N/A   Overcast
8:14 PM 26.6 °F 21.2 °F 24.8 °F 93% 29.71 in 10.0 mi West 4.6 mph - N/A   Overcast
8:53 PM 26.6 °F 20.0 °F 24.8 °F 93% 29.71 in 10.0 mi WNW 5.8 mph - N/A   Overcast
9:15 PM 24.8 °F 16.9 °F 21.2 °F 86% 29.73 in 10.0 mi West 6.9 mph - N/A   Scattered Clouds
9:35 PM 24.8 °F 15.3 °F 21.2 °F 86% 29.73 in 10.0 mi WNW 9.2 mph - N/A   Clear
9:52 PM 21.2 °F 13.6 °F 19.4 °F 93% 29.73 in 10.0 mi NW 5.8 mph - N/A   Clear
10:15 PM 21.2 °F 10.1 °F 19.4 °F 93% 29.75 in 10.0 mi WNW 10.4 mph - N/A   Clear
10:35 PM 21.2 °F 8.3 °F 17.6 °F 86% 29.77 in 10.0 mi WNW 13.8 mph 18.4 mph N/A   Mostly Cloudy
10:53 PM 21.2 °F 13.6 °F 17.6 °F 86% 29.78 in 10.0 mi WNW 5.8 mph - N/A   Mostly Cloudy
11:15 PM 19.4 °F 7.2 °F 15.8 °F 86% 29.76 in 10.0 mi NW 11.5 mph - N/A   Scattered Clouds
11:35 PM 19.4 °F 6.6 °F 15.8 °F 86% 29.78 in 10.0 mi WNW 12.7 mph - N/A   Clear
11:53 PM 19.4 °F 7.2 °F 15.8 °F 86% 29.78 in 10.0 mi NW 11.5 mph - N/A   Clear